Hourly Weather Barrancabermeja

Today, 21 April, Wednesday

Time Temperature Precipitation Wind Pressure Humidity
00:00 +23°C° 0.8 mm 0 mps 749 mmHg 94%
01:00 +23°C° 0.8 mm 0 mps 749 mmHg 97%
02:00 +23°C° 0.8 mm 0 mps 749 mmHg 97%
03:00 +22°C° 0.8 mm 0 mps 749 mmHg 98%
04:00 +22°C° 0.8 mm 0 mps 749 mmHg 98%
05:00 +23°C° 0.6 mm 0 mps 750 mmHg 97%
06:00 +23°C° 0.6 mm 0 mps 751 mmHg 97%
07:00 +23°C° 0.6 mm 0 mps 751 mmHg 96%
08:00 +26°C° 0.1 mm 0 mps 751 mmHg 85%
09:00 +28°C° 0.1 mm 0 mps 752 mmHg 74%
10:00 +30°C° 0.1 mm 0 mps 752 mmHg 64%
11:00 +34°C° 0 mm 1 mps 751 mmHg 57%
12:00 +35°C° 0 mm 1 mps 750 mmHg 51%
13:00 +37°C° 0 mm 1 mps 749 mmHg 45%
14:00 +36°C° 0 mm 1 mps 748 mmHg 47%
15:00 +36°C° 0 mm 1 mps 748 mmHg 50%
16:00 +35°C° 0 mm 1 mps 747 mmHg 52%
17:00 +33°C° 0.1 mm 1 mps 748 mmHg 61%
18:00 +31°C° 0.1 mm 1 mps 748 mmHg 69%
19:00 +29°C° 0.1 mm 1 mps 748 mmHg 78%
20:00 +28°C° 1.6 mm 1 mps 749 mmHg 84%
21:00 +27°C° 1.6 mm 1 mps 750 mmHg 90%
22:00 +25°C° 1.6 mm 1 mps 751 mmHg 96%
23:00 +23°C° 1.7 mm 0 mps 750 mmHg 97%

Tomorrow, 22 April, Thursday

Time Temperature Precipitation Wind Pressure Humidity
00:00 +23°C° 1.7 mm 0 mps 750 mmHg 97%
01:00 +23°C° 1.7 mm 0 mps 750 mmHg 98%
02:00 +22°C° 1 mm 0 mps 750 mmHg 98%
03:00 +22°C° 1 mm 0 mps 750 mmHg 98%
04:00 +22°C° 1 mm 0 mps 750 mmHg 98%
05:00 +23°C° 0.9 mm 0 mps 751 mmHg 98%
06:00 +23°C° 0.9 mm 0 mps 751 mmHg 97%
07:00 +23°C° 0.9 mm 0 mps 752 mmHg 97%
08:00 +25°C° 0.1 mm 0 mps 752 mmHg 90%
09:00 +26°C° 0.1 mm 0 mps 752 mmHg 83%
10:00 +29°C° 0.1 mm 1 mps 753 mmHg 76%
11:00 +30°C° 0.3 mm 1 mps 752 mmHg 73%
12:00 +31°C° 0.3 mm 1 mps 751 mmHg 71%
13:00 +31°C° 0.3 mm 1 mps 750 mmHg 68%
14:00 +31°C° 0 mm 1 mps 749 mmHg 67%
15:00 +31°C° 0 mm 1 mps 748 mmHg 66%
16:00 +32°C° 0 mm 1 mps 748 mmHg 64%
17:00 +28°C° 0.1 mm 0 mps 748 mmHg 72%
18:00 +26°C° 0.1 mm 0 mps 748 mmHg 79%
19:00 +25°C° 0.1 mm 0 mps 749 mmHg 87%
20:00 +24°C° 0 mm 0 mps 749 mmHg 88%
21:00 +24°C° 0 mm 0 mps 750 mmHg 89%
22:00 +24°C° 0 mm 0 mps 750 mmHg 91%
23:00 +23°C° 0.3 mm 0 mps 750 mmHg 92%

Day after tomorrow, 23 April, Friday

Time Temperature Precipitation Wind Pressure Humidity
00:00 +23°C° 0.3 mm 0 mps 750 mmHg 94%
01:00 +23°C° 0.3 mm 0 mps 750 mmHg 96%
02:00 +23°C° 0.3 mm 0 mps 750 mmHg 96%
03:00 +22°C° 0.3 mm 0 mps 750 mmHg 97%
04:00 +22°C° 0.3 mm 0 mps 750 mmHg 98%
05:00 +23°C° 0 mm 0 mps 750 mmHg 97%
06:00 +23°C° 0 mm 0 mps 751 mmHg 95%
07:00 +24°C° 0 mm 0 mps 751 mmHg 94%
08:00 +26°C° 0 mm 0 mps 751 mmHg 84%
09:00 +28°C° 0 mm 0 mps 751 mmHg 74%
10:00 +30°C° 0 mm 0 mps 751 mmHg 64%
11:00 +32°C° 0 mm 0 mps 750 mmHg 58%
12:00 +33°C° 0 mm 0 mps 749 mmHg 52%
13:00 +35°C° 0 mm 0 mps 748 mmHg 46%
14:00 +34°C° 0 mm 0 mps 748 mmHg 48%
15:00 +34°C° 0 mm 0 mps 747 mmHg 50%
16:00 +33°C° 0 mm 0 mps 746 mmHg 52%
17:00 +31°C° 0 mm 0 mps 747 mmHg 60%
18:00 +29°C° 0 mm 0 mps 747 mmHg 68%
19:00 +27°C° 0 mm 0 mps 748 mmHg 76%
20:00 +26°C° 0.7 mm 0 mps 748 mmHg 82%
21:00 +25°C° 0.7 mm 0 mps 749 mmHg 88%
22:00 +24°C° 0.7 mm 0 mps 749 mmHg 93%
23:00 +24°C° 1 mm 0 mps 749 mmHg 95%

24 April, Saturday

Time Temperature Precipitation Wind Pressure Humidity
00:00 +23°C° 1 mm 0 mps 749 mmHg 96%
01:00 +23°C° 1 mm 0 mps 749 mmHg 98%
02:00 +23°C° 1.2 mm 0 mps 749 mmHg 98%
03:00 +22°C° 1.2 mm 0 mps 749 mmHg 98%
04:00 +22°C° 1.2 mm 0 mps 749 mmHg 98%
05:00 +23°C° 0.2 mm 0 mps 750 mmHg 98%
06:00 +23°C° 0.2 mm 0 mps 750 mmHg 97%
07:00 +23°C° 0.2 mm 0 mps 751 mmHg 96%
08:00 +27°C° 0.1 mm 1 mps 751 mmHg 87%
09:00 +29°C° 0.1 mm 1 mps 751 mmHg 78%
10:00 +31°C° 0.1 mm 1 mps 752 mmHg 69%
11:00 +33°C° 0 mm 1 mps 750 mmHg 63%
12:00 +34°C° 0 mm 1 mps 749 mmHg 57%
13:00 +34°C° 0 mm 0 mps 748 mmHg 51%
14:00 +33°C° 0 mm 0 mps 748 mmHg 51%
15:00 +33°C° 0 mm 0 mps 747 mmHg 52%
16:00 +33°C° 0 mm 0 mps 746 mmHg 53%
17:00 +31°C° 0 mm 0 mps 747 mmHg 61%
18:00 +29°C° 0 mm 0 mps 747 mmHg 70%
19:00 +27°C° 0 mm 0 mps 748 mmHg 78%
20:00 +26°C° 0.2 mm 0 mps 748 mmHg 83%
21:00 +25°C° 0.2 mm 0 mps 749 mmHg 87%
22:00 +26°C° 0.2 mm 1 mps 749 mmHg 92%
23:00 +24°C° 0.9 mm 0 mps 749 mmHg 94%

25 April, Sunday

Time Temperature Precipitation Wind Pressure Humidity
00:00 +23°C° 0.9 mm 0 mps 749 mmHg 96%
01:00 +23°C° 0.9 mm 0 mps 749 mmHg 97%
02:00 +23°C° 1.1 mm 0 mps 749 mmHg 98%
03:00 +22°C° 1.1 mm 0 mps 749 mmHg 98%
04:00 +22°C° 1.1 mm 0 mps 749 mmHg 98%
05:00 +23°C° 0.1 mm 0 mps 750 mmHg 98%
06:00 +23°C° 0.1 mm 0 mps 750 mmHg 97%
07:00 +24°C° 0.1 mm 0 mps 750 mmHg 96%
08:00 +26°C° 0 mm 0 mps 751 mmHg 85%
09:00 +28°C° 0 mm 0 mps 751 mmHg 75%
10:00 +31°C° 0 mm 0 mps 751 mmHg 64%
11:00 +32°C° 0 mm 0 mps 750 mmHg 58%
12:00 +33°C° 0 mm 0 mps 749 mmHg 53%
13:00 +37°C° 0 mm 1 mps 748 mmHg 47%
14:00 +34°C° 0 mm 0 mps 747 mmHg 48%
15:00 +34°C° 0 mm 0 mps 747 mmHg 48%
16:00 +34°C° 0 mm 0 mps 746 mmHg 49%
17:00 +32°C° 0 mm 0 mps 746 mmHg 59%
18:00 +29°C° 0 mm 0 mps 747 mmHg 68%
19:00 +27°C° 0 mm 0 mps 748 mmHg 78%
20:00 +26°C° 0.4 mm 0 mps 748 mmHg 83%
21:00 +25°C° 0.4 mm 0 mps 748 mmHg 87%
22:00 +24°C° 0.4 mm 0 mps 749 mmHg 92%
23:00 +24°C° 1.5 mm 0 mps 749 mmHg 94%

26 April, Monday

Time Temperature Precipitation Wind Pressure Humidity
00:00 +24°C° 1.5 mm 0 mps 748 mmHg 96%
01:00 +23°C° 1.5 mm 0 mps 748 mmHg 97%
02:00 +23°C° 2.1 mm 0 mps 748 mmHg 98%
03:00 +23°C° 2.1 mm 0 mps 748 mmHg 98%
04:00 +23°C° 2.1 mm 0 mps 748 mmHg 98%
05:00 +23°C° 1.2 mm 0 mps 749 mmHg 98%
06:00 +24°C° 1.2 mm 0 mps 749 mmHg 98%
07:00 +24°C° 1.2 mm 0 mps 750 mmHg 98%
08:00 +25°C° 0.1 mm 0 mps 750 mmHg 92%
09:00 +26°C° 0.1 mm 0 mps 750 mmHg 86%
10:00 +30°C° 0.1 mm 1 mps 750 mmHg 80%
11:00 +30°C° 0.1 mm 1 mps 750 mmHg 75%
12:00 +29°C° 0.1 mm 0 mps 749 mmHg 70%
13:00 +30°C° 0.1 mm 0 mps 748 mmHg 65%
14:00 +31°C° 0.1 mm 0 mps 747 mmHg 64%
15:00 +31°C° 0.1 mm 0 mps 747 mmHg 63%
16:00 +31°C° 0.1 mm 0 mps 746 mmHg 61%
17:00 +30°C° 0.1 mm 0 mps 747 mmHg 69%
18:00 +28°C° 0.1 mm 0 mps 747 mmHg 78%
19:00 +26°C° 0.1 mm 0 mps 748 mmHg 86%
20:00 +25°C° 0.5 mm 0 mps 748 mmHg 88%
21:00 +25°C° 0.5 mm 0 mps 748 mmHg 91%
22:00 +24°C° 0.5 mm 0 mps 749 mmHg 94%
23:00 +24°C° 2 mm 0 mps 749 mmHg 95%
Show more